Regional Weather Roundup
Issued by NWS

Home | Current Version | Previous Version | Text Only | Print | Product List | Glossary On
Versions: 1 2 3 4 5 6 7 8 9 10 11 12 13 14 15 16 17 18 19 20 21 22 23 24 25 26 27 28 29 30 31 32 33 34 35 36 37 38 39 40 41 42 43 44 45 46 47 48 49 50
000
ASUS43 KMKX 250221
RWRWI

WISCONSIN REGIONAL WEATHER ROUNDUP
NATIONAL WEATHER SERVICE MILWAUKEE/SULLIVAN WI
900 PM CDT MON APR 24 2017

NOTE: "FAIR" INDICATES FEW OR NO CLOUDS BELOW 12,000 FEET WITH NO
SIGNIFICANT WEATHER AND/OR OBSTRUCTIONS TO VISIBILITY.

WIZ001-002-006>008-014>016-023>028-250300-
NORTHWEST WISCONSIN

CITY           SKY/WX    TMP DP  RH WIND       PRES   REMARKS
SUPERIOR ARPT  CLOUDY    36  34  92 NE16G22   29.69F WCI  26
ASHLAND        CLOUDY    39  35  86 NE7       29.68S WCI  34
HAYWARD        CLOUDY    62  32  32 SE8       29.64S
SIREN          CLOUDY    64  31  29 CALM      29.60F
CUMBERLAND     CLOUDY    57  34  41 S8        29.64R
RICE LAKE      CLOUDY    64  29  27 S10       29.65R
CHETEK         CLOUDY    63  33  31 S9        29.64R
LADYSMITH      CLOUDY    63  32  31 S7        29.68R
EAU CLAIRE     CLOUDY    66  29  24 S8G16     29.64R
MENOMONIE      CLOUDY    65  29  25 SE20G25   29.63S
NEW RICHMOND   CLOUDY    63  31  30 SE7       29.60S
OSCEOLA        CLOUDY    64  32  30 SE7       29.61S
$$

WIZ003>005-009-010-017-018-250300-
NORTH CENTRAL WISCONSIN

CITY           SKY/WX    TMP DP  RH WIND       PRES   REMARKS
MANITOWISH WTR CLOUDY    56  36  47 SE7       29.70R
ARBOR VITAE    CLOUDY    59  36  41 SE9       29.71R
WOODRUFF       CLOUDY    59  36  41 SE9       29.71R
RHINELANDER    MOCLDY    58  39  49 SE13      29.73R
EAGLE RIVER    MOCLDY    55  36  49 SE7       29.74R
LAND O LAKES   MOCLDY    56  37  48 SE8       29.74S
PHILLIPS       CLOUDY    60  33  35 S12G17    29.68R
TOMAHAWK       CLOUDY    58  34  41 S6        29.74R
MEDFORD        CLOUDY    59  33  38 SE5       29.69F
MERRILL        MOCLDY    60  35  38 E7        29.73R
$$

WIZ029-030-035-036-043>047-250300-
CENTRAL WISCONSIN

CITY           SKY/WX    TMP DP  RH WIND       PRES   REMARKS
WAUSAU         CLOUDY    61  35  37 SE14G25   29.70R
MOSINEE        NOT AVBL
MARSHFIELD     CLOUDY    62  30  29 SE10      29.69R
STEVENS POINT  CLOUDY    59  35  40 SE7       29.72F
WAUPACA        CLOUDY    61  29  30 SE9       29.75F
WAUTOMA        CLOUDY    62  30  29 SE13      29.73F
WISC RAPIDS    NOT AVBL
CAMP DOUGLAS   CLOUDY    64  30  27 SE10      29.67F
$$

WIZ011>013-019>022-031-037>040-048>050-250300-
NORTHEAST WISCONSIN

CITY           SKY/WX    TMP DP  RH WIND       PRES   REMARKS
ANTIGO         CLOUDY    54  38  56 SE15      29.74F
SHAWANO        MOCLDY    60  30  31 S7        29.77R
OCONTO         MOCLDY    46  37  73 E5        29.82R
STURGEON BAY   CLOUDY    44  35  70 E7        29.83S
GREEN BAY      CLOUDY    55  36  48 SE8       29.80S
MANITOWOC      PTCLDY    44  37  76 CALM      29.82R
APPLETON       MOCLDY    54  27  35 SE10      29.77S
CLINTONVILLE   MOCLDY    59  28  31 SE17      29.74F
OSHKOSH        PTCLDY    58  32  37 S9        29.77S
$$

WIZ032>034-041-042-053>061-250300-
SOUTHWEST WISCONSIN

CITY           SKY/WX    TMP DP  RH WIND       PRES   REMARKS
LA CROSSE      CLOUDY    66  35  31 SE7       29.63R
SPARTA         CLOUDY    66  29  25 SE7       29.66S
VIROQUA        CLOUDY    64  28  25 SE12      29.66R
BOSCOBEL       CLOUDY    69  26  20 VRB5      29.66F
PRAIRIE DU CHI CLOUDY    69  22  17 SE8       29.65R
PLATTEVILLE    MOCLDY    65  33  30 SE8       29.68F
$$

WIZ056-057-062-063-064-067-068-250300-
SOUTH CENTRAL WISCONSIN

CITY           SKY/WX    TMP DP  RH WIND       PRES   REMARKS
REEDSBURG      PTCLDY    65  29  25 SE8       29.69F
BARABOO/DELLS  PTCLDY    62  32  31 SE13      29.71S
LONE ROCK      CLOUDY    65  30  27 E13       29.67F
MINERAL POINT  PTCLDY    64  30  27 SE10      29.69F
MADISON        MOCLDY    62  34  35 SE14      29.73F
MIDDLETON      PTCLDY    64  34  33 SE13G20   29.73S
WATERTOWN      PTCLDY    57  32  39 SE7       29.77R
MONROE         PTCLDY    64  28  25 SE12      29.73S
JANESVILLE     MOCLDY    61  34  36 E12       29.75R
$$

WIZ051-052-058>065-066-070>072-250300-
SOUTHEAST WISCONSIN

CITY           SKY/WX    TMP DP  RH WIND       PRES   REMARKS
MILWAUKEE      MOCLDY    52  31  44 CALM      29.79S
WAUKESHA       CLEAR     52  30  43 SE7       29.80R
MILWAUKEE/TIMM CLEAR     54  25  32 CALM      29.80R
RACINE         CLEAR     50  33  52 SE5       29.80S
KENOSHA        CLEAR     45  33  63 E7        29.78S
FOND DU LAC    PTCLDY    56  33  42 SE12      29.78S
SHEBOYGAN      CLEAR     51  34  52 S3        29.80S
WEST BEND      CLOUDY    50  30  46 CALM      29.80R
JUNEAU         CLOUDY    56  34  42 E6        29.78S
$$

LSZ147-162-250300-
LAKE SUPERIOR

STATION/POSITION TIME  TEMP    WIND        PRES    WAVE
                       AIR SEA DIR/SP/G            HT/PER
                 (UTC) (F)     (DEG/KT/KT) (MB)    (FT/S)
DEVILS ISLAND    0200   37      60/ 20/ 24 1006.7R
PORT WING        0140   38      30/ 18/ 21 1005.8S
SAXON HARBOR     0140   40      CALM  /  3 1005.1S
$$

LMZ867-665-643>646-250300-
LAKE MICHIGAN

STATION/POSITION TIME  TEMP    WIND        PRES    WAVE
                       AIR SEA DIR/SP/G            HT/PER
                 (UTC) (F)     (DEG/KT/KT) (MB)    (FT/S)
CHAMBERS ISLAND  0140   44      80/  4/  5 1010.2S
N MID LAKE BUOY  0150   41 37   80/ 10/ 12 1011.8F   2/ 4
NORTHPORT PIER   0140   42     110/  5/  7 1010.8R
SISTER BAY       0136   44     120/  8/ 12   N/A
ALGOMA LAKESHORE 0144          100/  5/  6   N/A
KEWAUNEE LAKESHO 0154   42      70/  2/  5 1009.6S
SHEBOYGAN LAKESH 0200   45     120/  3/  4 1009.5R
PORT WASHINGTON  0140   48     270/  1/  3 1010.2S
MILWAUKEE LAKESH 0200   48      CALM  /  1   N/A
S MID LAKE BUOY  0150   49 42   70/  8/ 10 1009.4F   1
KENOSHA   LAKESH 0200   51     140/  1/  8 1008.5
$$

TC  - TEMPERATURE IN CELSIUS
VSB - VISIBILITY IN STATUTE MILES
WCI - WIND CHILL INDEX
HX  - HEAT INDEX





USA.gov is the U.S. government's official web portal to all federal, state and local government web resources and services.